This demonstration page uses our WeatherBlox Daily Observations layout. Learn more.

Left ArrowRight Arrow

Hourly Observations for November 2, 2019

Temp ( °F °C ) Dew Point ( °F °C ) Humidity (%) Winds ( mph kmh ) Pressure ( in mb ) Visibility ( mi km ) Precip ( " mm )
12:53 am 00:53 Clear 28 -2.2 22 -5.6 78 78 W 7 11 30.41 1030 10 16 0.00 0.00
1:53 am 01:53 Clear 30 -1.1 23 -5 75 75 W 9 15 30.40 1030 10 16 0.00 0.00
2:53 am 02:53 Clear 28 -2.2 22 -5.6 78 78 W 8 13 30.41 1030 10 16 0.00 0.00
3:53 am 03:53 Clear 24 -4.4 20 -6.7 84 84 W 6 9 30.42 1030 10 16 0.00 0.00
4:53 am 04:53 Clear 26 -3.3 20 -6.7 78 78 W 8 13 30.41 1030 10 16 0.00 0.00
5:53 am 05:53 Clear 27 -2.8 21 -6.1 78 78 W 7 11 30.40 1030 10 16 0.00 0.00
6:53 am 06:53 Clear 27 -2.8 21 -6.1 78 78 W 8 13 30.40 1029 10 16 0.00 0.00
7:53 am 07:53 Clear 25 -3.9 20 -6.7 81 81 W 6 9 30.40 1029 10 16 0.00 0.00
8:53 am 08:53 Sunny 27 -2.8 20 -6.7 75 75 W 9 15 30.40 1030 10 16 0.00 0.00
9:53 am 09:53 Sunny 32 0 23 -5 69 69 W 12 19 30.41 1030 10 16 0.00 0.00
10:53 am 10:53 Sunny 40 4.4 25 -3.9 55 55 W 9 15 30.39 1029 10 16 0.00 0.00
11:53 am 11:53 Sunny 45 7.2 23 -5 42 42 W 12 19 30.38 1029 10 16 0.00 0.00
12:53 pm 12:53 Sunny 48 8.9 21 -6.1 34 34 WSW 12 19 30.34 1028 10 16 0.00 0.00
1:53 pm 13:53 Sunny 51 10.6 23 -5 33 33 WSW 9 15 30.28 1026 10 16 0.00 0.00
2:53 pm 14:53 Sunny 52 11.1 22 -5.6 31 31 WSW 15 24 30.24 1024 10 16 0.00 0.00
3:53 pm 15:53 Sunny 53 11.7 22 -5.6 30 30 SW 12 19 30.22 1023 10 16 0.00 0.00
4:53 pm 16:53 Sunny 54 12.2 23 -5 30 30 SSW 13 20 30.19 1022 10 16 0.00 0.00
5:53 pm 17:53 Partly Cloudy 53 11.7 18 -7.8 25 25 W 8 13 30.17 1022 10 16 0.00 0.00
6:53 pm 18:53 Clear 50 10 19 -7.2 29 29 SW 3 6 30.15 1021 10 16 0.00 0.00
7:53 pm 19:53 Mostly Clear 47 8.3 20 -6.7 34 34 S 7 11 30.15 1021 10 16 0.00 0.00
8:53 pm 20:53 Clear 45 7.2 21 -6.1 39 39 S 8 13 30.13 1020 10 16 0.00 0.00
9:53 pm 21:53 Cloudy 45 7.2 22 -5.6 40 40 SW 6 9 30.11 1020 10 16 0.00 0.00
10:53 pm 22:53 Partly Cloudy 39 3.9 22 -5.6 50 50 WSW 5 7 30.11 1020 10 16 0.00 0.00
11:53 pm 23:53 Clear 38 3.3 22 -5.6 52 52 W 8 13 30.11 1020 10 16 0.00 0.00

Powered by AerisWeather